Hourly Data Report for July 25, 2012

HALIFAX STANFIELD INT'L A
NOVA SCOTIA

44°52'48.060" N
63°30'00.050" W
145.40 m
8202250
71395
YHZ

Download Data

Hourly Data (July 2012)
Hourly Data Report for July 25, 2012
TIME
LST
Temp Definition
°C
Dew Point Definition
°C
Rel Hum Definition
%
Precip. Amount Definition
mm

Wind Dir Definition
10's deg

Wind Spd Definition
km/h
Visibility Definition
km
Stn Press Definition
kPa
Hmdx Definition


Wind Chill Definition


Weather Definition


00:00 18.5 18.5 100   21 15 2.0 98.21     Fog
01:00 18.0 18.0 100   21 19 4.8 98.15     Thunderstorms,Moderate Rain Showers, Fog
02:00 17.9 17.9 100   22 15 6.4 98.10     Thunderstorms,Moderate Rain Showers, Fog
03:00 18.1 18.1 100   24 17 4.8 98.14     Thunderstorms,Rain Showers, Fog
04:00 18.0 18.0 100   32 9 9.7 98.14     Rain Showers, Fog
05:00 17.6 17.6 100   32 15 4.8 98.16     Fog
06:00 17.4 17.4 100   33 15 24.1 98.22     Cloudy
07:00 17.4 17.1 98   33 19 24.1 98.26     Cloudy
08:00 17.2 16.8 97   33 19 24.1 98.28     Cloudy
09:00 18.0 17.0 94   34 17 24.1 98.29     Cloudy
10:00 20.0 17.1 83   36 19 24.1 98.30 25   Mostly Cloudy
11:00 21.5 16.7 74   2 17 24.1 98.32 27   Mostly Cloudy
12:00 23.2 15.6 62   1 19 24.1 98.32 28   Mostly Cloudy
13:00 22.4 15.3 64   34 26 24.1 98.36 27   Mostly Cloudy
14:00 22.9 14.8 60   35 26 24.1 98.37 27   Mostly Cloudy
15:00 24.0 15.2 58   35 28 24.1 98.46 28   Mostly Cloudy
16:00 22.3 14.0 59   35 28 24.1 98.48 26   Mostly Cloudy
17:00 21.4 14.3 64   2 22 24.1 98.52 25   Mostly Cloudy
18:00 21.5 13.9 62   1 24 24.1 98.55 25   Mainly Clear
19:00 20.2 13.6 66   1 19 24.1 98.60     Mainly Clear
20:00 18.3 12.9 71   36 13 24.1 98.65     Mostly Cloudy
21:00 16.4 12.5 78   35 9 24.1 98.70     Mainly Clear
22:00 15.5 12.3 81   34 9 24.1 98.72     Clear
23:00 15.4 12.3 82   1 6 24.1 98.70     Clear

Notes on Data Quality.

Legend

  • E = Estimated
  • M = Missing
  • NA = Not Available*
  • [empty] = Indicates an unobserved value
Date modified: